PBD2906 UWLL-UUWW

Flight info

Callsign PBD2906
Flight time 1h 18m
Altitude 38000
Route ARPUD1L ARPUD T750 OKSUD T787 OTKOL T784 LARNO T291 URIDU L158 DIMGI DIMGI3A
Aircraft B738/M-SDE2E3FGHIRWXY/LB1

Departure

Time 2026-04-30 20:30
Airport Ulyanovsk Baratayevka Airport (UWLL)

Arrival

Time 2026-04-30 21:49
Airport Vnukovo International Airport (UUWW)
Time Latitude Longitude Altitude Speed Heading
2026-04-30 19:56 54.28650 48.23053 368 ft 0 kts 31°
2026-04-30 20:14 54.28662 48.23066 368 ft 4 kts 36°
2026-04-30 20:14 54.28661 48.23126 369 ft 7 kts 149°
2026-04-30 20:14 54.28609 48.23101 370 ft 9 kts 199°
2026-04-30 20:14 54.28555 48.23163 372 ft 12 kts 122°
2026-04-30 20:15 54.28516 48.23273 372 ft 11 kts 115°
2026-04-30 20:15 54.28504 48.23315 373 ft 0 kts 116°
2026-04-30 20:15 54.28497 48.23338 373 ft 4 kts 114°
2026-04-30 20:15 54.28473 48.23388 375 ft 7 kts 155°
2026-04-30 20:16 54.28449 48.23472 376 ft 9 kts 112°
2026-04-30 20:16 54.28413 48.23570 380 ft 10 kts 116°
2026-04-30 20:16 54.28374 48.23677 383 ft 12 kts 126°
2026-04-30 20:16 54.28361 48.23708 383 ft 0 kts 123°
2026-04-30 20:17 54.28358 48.23714 383 ft 2 kts 123°
2026-04-30 20:17 54.28345 48.23746 384 ft 5 kts 127°
2026-04-30 20:17 54.28322 48.23806 386 ft 7 kts 113°
2026-04-30 20:18 54.28292 48.23891 387 ft 10 kts 124°
2026-04-30 20:18 54.28245 48.24025 384 ft 17 kts 123°
2026-04-30 20:18 54.28200 48.24144 384 ft 8 kts 123°
2026-04-30 20:18 54.28149 48.24201 386 ft 10 kts 187°
2026-04-30 20:19 54.28089 48.24147 389 ft 10 kts 212°
2026-04-30 20:19 54.28050 48.24104 390 ft 10 kts 212°
2026-04-30 20:19 54.27974 48.24022 393 ft 10 kts 212°
2026-04-30 20:19 54.27917 48.23963 397 ft 10 kts 210°
2026-04-30 20:20 54.27847 48.23888 396 ft 16 kts 212°
2026-04-30 20:20 54.27721 48.23753 397 ft 26 kts 213°
2026-04-30 20:20 54.27563 48.23583 405 ft 27 kts 214°
2026-04-30 20:20 54.27408 48.23416 418 ft 25 kts 212°
2026-04-30 20:21 54.27262 48.23258 418 ft 26 kts 211°
2026-04-30 20:21 54.27102 48.23088 426 ft 29 kts 212°
2026-04-30 20:21 54.26934 48.22908 430 ft 28 kts 211°
2026-04-30 20:21 54.26777 48.22739 428 ft 26 kts 212°
2026-04-30 20:22 54.26630 48.22580 436 ft 24 kts 212°
2026-04-30 20:22 54.26492 48.22435 439 ft 23 kts 211°
2026-04-30 20:22 54.26394 48.22323 441 ft 12 kts 221°
2026-04-30 20:22 54.26375 48.22188 438 ft 12 kts 272°
2026-04-30 20:23 54.26376 48.22149 444 ft 0 kts 272°
2026-04-30 20:27 54.26380 48.21981 447 ft 15 kts 272°
2026-04-30 20:27 54.26472 48.21971 436 ft 0 kts 30°
2026-04-30 20:28 54.26476 48.21975 435 ft 4 kts 30°
2026-04-30 20:29 54.26591 48.22107 432 ft 1 kts 28°
2026-04-30 20:30 54.27451 48.23023 412 ft 150 kts 32°
2026-04-30 20:30 54.30368 48.26014 3317 ft 159 kts 36°
2026-04-30 20:31 54.33972 48.28467 4661 ft 223 kts 346°
2026-04-30 20:32 54.36858 48.21342 6177 ft 268 kts 294°
2026-04-30 20:32 54.38429 48.15537 8039 ft 272 kts 293°
2026-04-30 20:33 54.39251 48.12589 8905 ft 276 kts 293°
2026-04-30 20:33 54.40950 48.06601 10546 ft 287 kts 292°
2026-04-30 20:33 54.41867 48.03385 10767 ft 313 kts 293°
2026-04-30 20:34 54.43860 47.96442 11466 ft 348 kts 293°
2026-04-30 20:34 54.46026 47.88909 13053 ft 355 kts 292°
2026-04-30 20:35 54.47119 47.85081 13833 ft 359 kts 292°
2026-04-30 20:35 54.48212 47.81183 14511 ft 363 kts 291°
2026-04-30 20:35 54.50416 47.73256 15903 ft 371 kts 290°
2026-04-30 20:36 54.51534 47.69224 16585 ft 375 kts 290°
2026-04-30 20:36 54.52663 47.65149 17273 ft 379 kts 290°
2026-04-30 20:36 54.54966 47.56815 18383 ft 393 kts 290°
2026-04-30 20:37 54.56143 47.52555 19002 ft 395 kts 289°
2026-04-30 20:37 54.57325 47.48270 19635 ft 397 kts 289°
2026-04-30 20:37 54.58517 47.43946 20237 ft 400 kts 289°
2026-04-30 20:37 54.59710 47.39605 20819 ft 403 kts 289°
2026-04-30 20:38 54.60914 47.35211 21409 ft 406 kts 289°
2026-04-30 20:38 54.62120 47.30805 21987 ft 408 kts 289°
2026-04-30 20:38 54.63334 47.26358 22550 ft 411 kts 288°
2026-04-30 20:39 54.65787 47.17351 23618 ft 417 kts 288°
2026-04-30 20:39 54.66606 47.14336 23970 ft 418 kts 288°
2026-04-30 20:39 54.68239 47.08316 24644 ft 419 kts 289°
2026-04-30 20:40 54.70665 46.99329 25294 ft 429 kts 289°
2026-04-30 20:40 54.71930 46.94633 25689 ft 432 kts 289°
2026-04-30 20:40 54.72787 46.91447 25968 ft 433 kts 289°
2026-04-30 20:41 54.75343 46.81918 26748 ft 439 kts 289°
2026-04-30 20:41 54.76614 46.77164 27088 ft 442 kts 289°
2026-04-30 20:41 54.77927 46.72243 27429 ft 446 kts 290°
2026-04-30 20:41 54.79229 46.67356 27795 ft 449 kts 290°
2026-04-30 20:42 54.80524 46.62480 27992 ft 455 kts 290°
2026-04-30 20:42 54.81901 46.57505 28283 ft 461 kts 295°
2026-04-30 20:42 54.85778 46.48455 28966 ft 471 kts 305°
2026-04-30 20:43 54.87871 46.44052 29273 ft 475 kts 306°
2026-04-30 20:43 54.89979 46.39614 29571 ft 477 kts 306°
2026-04-30 20:43 54.92077 46.35134 29920 ft 478 kts 305°
2026-04-30 20:44 54.96212 46.26107 30760 ft 475 kts 305°
2026-04-30 20:44 54.98250 46.21593 31207 ft 472 kts 305°
2026-04-30 20:44 55.02261 46.12643 31963 ft 469 kts 305°
2026-04-30 20:45 55.06264 46.03673 32674 ft 467 kts 305°
2026-04-30 20:45 55.08145 45.99453 33035 ft 465 kts 305°
2026-04-30 20:45 55.10129 45.94994 33406 ft 464 kts 305°
2026-04-30 20:46 55.16039 45.81666 34437 ft 460 kts 306°
2026-04-30 20:46 55.17994 45.77243 34665 ft 460 kts 306°
2026-04-30 20:47 55.21891 45.68397 35052 ft 462 kts 306°
2026-04-30 20:47 55.23851 45.63938 35298 ft 462 kts 305°
2026-04-30 20:48 55.27768 45.55002 35720 ft 462 kts 305°
2026-04-30 20:48 55.29728 45.50517 35934 ft 463 kts 305°
2026-04-30 20:48 55.31682 45.46040 36164 ft 463 kts 306°
2026-04-30 20:48 55.33642 45.41540 36343 ft 464 kts 306°
2026-04-30 20:49 55.35603 45.37030 36506 ft 465 kts 306°
2026-04-30 20:49 55.37559 45.32522 36726 ft 464 kts 306°
2026-04-30 20:49 55.39520 45.27995 36963 ft 464 kts 306°
2026-04-30 20:50 55.43425 45.18953 37320 ft 465 kts 306°
2026-04-30 20:50 55.45383 45.14408 37512 ft 465 kts 306°
2026-04-30 20:50 55.47338 45.09859 37717 ft 465 kts 306°
2026-04-30 20:50 55.49288 45.05316 37906 ft 465 kts 306°
2026-04-30 20:51 55.51236 45.00769 38082 ft 465 kts 306°
2026-04-30 20:51 55.56287 44.86588 38132 ft 463 kts 288°
2026-04-30 20:52 55.57400 44.75483 38144 ft 459 kts 272°
2026-04-30 20:53 55.57723 44.58611 38118 ft 457 kts 271°
2026-04-30 20:53 55.57962 44.47386 38124 ft 457 kts 271°
2026-04-30 20:54 55.58356 44.30539 38125 ft 457 kts 272°
2026-04-30 20:55 55.58733 44.13663 38134 ft 459 kts 272°
2026-04-30 20:55 55.58968 44.02456 38131 ft 459 kts 272°
2026-04-30 20:56 55.59307 43.85828 38143 ft 461 kts 274°
2026-04-30 20:56 55.60673 43.74787 38151 ft 461 kts 291°
2026-04-30 20:57 55.62032 43.69657 38141 ft 462 kts 299°
2026-04-30 20:57 55.65297 43.59843 38148 ft 462 kts 301°
2026-04-30 20:58 55.70181 43.45095 38148 ft 463 kts 300°
2026-04-30 20:58 55.73387 43.35166 38155 ft 463 kts 300°
2026-04-30 20:59 55.78144 43.20226 38147 ft 464 kts 295°
2026-04-30 21:00 55.80033 43.09324 38158 ft 463 kts 277°
2026-04-30 21:00 55.80647 42.98337 38164 ft 463 kts 275°
2026-04-30 21:01 55.81510 42.81230 38159 ft 463 kts 275°
2026-04-30 21:02 55.82435 42.64131 38166 ft 463 kts 276°
2026-04-30 21:02 55.83049 42.52736 38168 ft 463 kts 276°
2026-04-30 21:03 55.83652 42.41333 38169 ft 463 kts 276°
2026-04-30 21:03 55.84243 42.29935 38178 ft 463 kts 275°
2026-04-30 21:04 55.84823 42.18523 38179 ft 462 kts 275°
2026-04-30 21:04 55.85673 42.01417 38177 ft 462 kts 275°
2026-04-30 21:05 55.86209 41.90402 38184 ft 462 kts 275°
2026-04-30 21:05 55.86744 41.79030 38187 ft 463 kts 274°
2026-04-30 21:06 55.86630 41.67535 38187 ft 463 kts 267°
2026-04-30 21:06 55.86191 41.56106 38187 ft 463 kts 266°
2026-04-30 21:07 55.85772 41.44653 38189 ft 463 kts 267°
2026-04-30 21:07 55.85395 41.33210 38195 ft 464 kts 267°
2026-04-30 21:08 55.85023 41.21742 38198 ft 464 kts 267°
2026-04-30 21:08 55.84639 41.10256 38196 ft 464 kts 267°
2026-04-30 21:09 55.84256 40.99151 38203 ft 464 kts 267°
2026-04-30 21:09 55.83849 40.87680 38151 ft 466 kts 267°
2026-04-30 21:10 55.83639 40.81869 37608 ft 472 kts 267°
2026-04-30 21:10 55.83429 40.76146 37073 ft 469 kts 267°
2026-04-30 21:10 55.83215 40.70347 36497 ft 468 kts 267°
2026-04-30 21:10 55.82998 40.64573 35908 ft 468 kts 267°
2026-04-30 21:11 55.82777 40.58793 35262 ft 469 kts 267°
2026-04-30 21:11 55.82545 40.52987 34593 ft 471 kts 267°
2026-04-30 21:11 55.82308 40.47161 33851 ft 473 kts 267°
2026-04-30 21:11 55.82068 40.41339 33091 ft 473 kts 267°
2026-04-30 21:12 55.81826 40.35516 32397 ft 472 kts 268°
2026-04-30 21:12 55.81582 40.29727 31942 ft 466 kts 268°
2026-04-30 21:12 55.81340 40.24016 31438 ft 461 kts 268°
2026-04-30 21:12 55.81097 40.18341 30965 ft 457 kts 268°
2026-04-30 21:13 55.80855 40.12741 30491 ft 453 kts 268°
2026-04-30 21:13 55.80613 40.07188 29959 ft 449 kts 268°
2026-04-30 21:13 55.80372 40.01696 29419 ft 443 kts 268°
2026-04-30 21:13 55.80143 39.96561 28965 ft 437 kts 267°
2026-04-30 21:14 55.79904 39.91211 28492 ft 432 kts 267°
2026-04-30 21:14 55.79666 39.85975 28369 ft 419 kts 267°
2026-04-30 21:14 55.79432 39.80878 28155 ft 408 kts 267°
2026-04-30 21:14 55.79153 39.75920 28036 ft 397 kts 265°
2026-04-30 21:15 55.78826 39.71093 27936 ft 392 kts 264°
2026-04-30 21:15 55.78485 39.66233 27853 ft 401 kts 264°
2026-04-30 21:15 55.78139 39.61258 27747 ft 409 kts 264°
2026-04-30 21:15 55.77795 39.56240 27496 ft 410 kts 265°
2026-04-30 21:16 55.77454 39.51214 27260 ft 407 kts 265°
2026-04-30 21:16 55.77116 39.46259 27210 ft 402 kts 265°
2026-04-30 21:16 55.76783 39.41394 27211 ft 403 kts 265°
2026-04-30 21:16 55.76441 39.36420 27047 ft 407 kts 265°
2026-04-30 21:17 55.76093 39.31447 26773 ft 405 kts 265°
2026-04-30 21:17 55.75745 39.26504 26498 ft 400 kts 265°
2026-04-30 21:17 55.75399 39.21625 26277 ft 397 kts 265°
2026-04-30 21:17 55.75053 39.16758 26225 ft 398 kts 265°
2026-04-30 21:18 55.74704 39.11878 26207 ft 398 kts 265°
2026-04-30 21:18 55.74356 39.07014 26199 ft 397 kts 265°
2026-04-30 21:18 55.74005 39.02137 26199 ft 398 kts 265°
2026-04-30 21:18 55.73673 38.97552 26202 ft 398 kts 265°
2026-04-30 21:19 55.73316 38.92677 26188 ft 398 kts 265°
2026-04-30 21:19 55.72945 38.87790 25683 ft 400 kts 264°
2026-04-30 21:19 55.72566 38.82940 25304 ft 395 kts 264°
2026-04-30 21:19 55.72189 38.78131 24898 ft 392 kts 264°
2026-04-30 21:20 55.71814 38.73354 24492 ft 390 kts 265°
2026-04-30 21:20 55.71441 38.68588 24094 ft 389 kts 265°
2026-04-30 21:20 55.71081 38.63853 23688 ft 388 kts 266°
2026-04-30 21:20 55.70726 38.59114 23242 ft 386 kts 265°
2026-04-30 21:21 55.70372 38.54407 22841 ft 384 kts 265°
2026-04-30 21:21 55.70016 38.49736 22451 ft 381 kts 266°
2026-04-30 21:21 55.69310 38.40535 21672 ft 373 kts 265°
2026-04-30 21:22 55.68963 38.36014 21311 ft 369 kts 265°
2026-04-30 21:22 55.67929 38.22668 20187 ft 360 kts 264°
2026-04-30 21:23 55.67588 38.18384 20075 ft 351 kts 264°
2026-04-30 21:23 55.67244 38.14145 19954 ft 347 kts 264°
2026-04-30 21:23 55.66539 38.05471 19735 ft 360 kts 264°
2026-04-30 21:24 55.66180 38.01094 19602 ft 358 kts 264°
2026-04-30 21:24 55.65845 37.97012 19481 ft 355 kts 263°
2026-04-30 21:24 55.65492 37.92749 19351 ft 346 kts 263°
2026-04-30 21:24 55.65141 37.88587 19212 ft 337 kts 263°
2026-04-30 21:25 55.63218 37.81084 18621 ft 336 kts 241°
2026-04-30 21:25 55.62418 37.78742 18347 ft 336 kts 241°
2026-04-30 21:25 55.61220 37.75195 17942 ft 335 kts 241°
2026-04-30 21:26 55.58873 37.68112 17217 ft 331 kts 242°
2026-04-30 21:26 55.57346 37.63476 16747 ft 328 kts 242°
2026-04-30 21:27 55.55018 37.58210 16158 ft 328 kts 213°
2026-04-30 21:27 55.52956 37.56623 15929 ft 323 kts 191°
2026-04-30 21:27 55.50752 37.56075 15696 ft 318 kts 186°
2026-04-30 21:28 55.46394 37.55180 15189 ft 313 kts 186°
2026-04-30 21:28 55.44238 37.54719 14924 ft 312 kts 187°
2026-04-30 21:28 55.39952 37.53772 14406 ft 309 kts 187°
2026-04-30 21:29 55.37848 37.53305 14147 ft 308 kts 187°
2026-04-30 21:29 55.31502 37.52839 13335 ft 302 kts 175°
2026-04-30 21:30 55.27319 37.53369 12808 ft 299 kts 176°
2026-04-30 21:31 55.21193 37.53937 12060 ft 289 kts 179°
2026-04-30 21:31 55.17226 37.53715 11565 ft 282 kts 183°
2026-04-30 21:32 55.13351 37.53415 11097 ft 275 kts 182°
2026-04-30 21:32 55.11428 37.53285 10718 ft 278 kts 182°
2026-04-30 21:32 55.09516 37.53161 10465 ft 276 kts 182°
2026-04-30 21:32 55.07606 37.52949 10197 ft 274 kts 192°
2026-04-30 21:33 55.05926 37.51543 9945 ft 267 kts 224°
2026-04-30 21:33 55.04300 37.46066 9553 ft 252 kts 258°
2026-04-30 21:33 55.03888 37.43114 9342 ft 248 kts 259°
2026-04-30 21:34 55.03795 37.40178 9152 ft 241 kts 286°
2026-04-30 21:34 55.05898 37.36065 8833 ft 235 kts 340°
2026-04-30 21:34 55.07505 37.35576 8651 ft 236 kts 359°
2026-04-30 21:35 55.09155 37.35631 8470 ft 238 kts
2026-04-30 21:35 55.10817 37.35769 8273 ft 239 kts
2026-04-30 21:35 55.12452 37.35913 8084 ft 236 kts
2026-04-30 21:35 55.14080 37.36026 7893 ft 232 kts
2026-04-30 21:36 55.15685 37.36126 7729 ft 230 kts
2026-04-30 21:36 55.17287 37.36223 7547 ft 230 kts
2026-04-30 21:37 55.22095 37.36505 7039 ft 231 kts
2026-04-30 21:37 55.23700 37.36597 6846 ft 231 kts
2026-04-30 21:37 55.25304 37.36690 6678 ft 231 kts
2026-04-30 21:37 55.26914 37.36783 6493 ft 231 kts
2026-04-30 21:38 55.28518 37.36876 6296 ft 230 kts
2026-04-30 21:38 55.30120 37.36970 6122 ft 230 kts
2026-04-30 21:38 55.31714 37.37072 5951 ft 229 kts
2026-04-30 21:38 55.33285 37.37407 5800 ft 227 kts
2026-04-30 21:39 55.34841 37.37841 5653 ft 225 kts
2026-04-30 21:39 55.36380 37.38277 5511 ft 223 kts
2026-04-30 21:39 55.37909 37.38704 5368 ft 222 kts
2026-04-30 21:39 55.39434 37.39126 5225 ft 221 kts
2026-04-30 21:40 55.40954 37.39542 5098 ft 221 kts
2026-04-30 21:40 55.42460 37.39951 4935 ft 222 kts
2026-04-30 21:40 55.43986 37.40364 4801 ft 223 kts
2026-04-30 21:40 55.45545 37.40785 4649 ft 224 kts
2026-04-30 21:41 55.47087 37.41201 4506 ft 225 kts
2026-04-30 21:41 55.48634 37.41618 4362 ft 224 kts
2026-04-30 21:41 55.50157 37.42030 4190 ft 219 kts
2026-04-30 21:41 55.51636 37.42429 4043 ft 210 kts
2026-04-30 21:42 55.53028 37.42801 3933 ft 199 kts
2026-04-30 21:42 55.54357 37.43156 3801 ft 187 kts
2026-04-30 21:42 55.55611 37.43490 3693 ft 175 kts
2026-04-30 21:42 55.56771 37.43799 3571 ft 162 kts
2026-04-30 21:43 55.57880 37.44095 3506 ft 161 kts
2026-04-30 21:43 55.58989 37.44390 3404 ft 161 kts
2026-04-30 21:43 55.60088 37.44676 3295 ft 158 kts
2026-04-30 21:43 55.61169 37.44960 3185 ft 156 kts
2026-04-30 21:44 55.62249 37.45247 3084 ft 157 kts
2026-04-30 21:44 55.63331 37.45473 2979 ft 157 kts 354°
2026-04-30 21:44 55.64237 37.44571 2908 ft 153 kts 309°
2026-04-30 21:44 55.65034 37.43270 2807 ft 158 kts 326°
2026-04-30 21:45 55.65923 37.42128 2695 ft 157 kts 322°
2026-04-30 21:45 55.66769 37.40958 2580 ft 155 kts 321°
2026-04-30 21:45 55.67613 37.39785 2480 ft 154 kts 321°
2026-04-30 21:45 55.68456 37.38612 2387 ft 155 kts 321°
2026-04-30 21:46 55.69292 37.37347 2246 ft 156 kts 307°
2026-04-30 21:46 55.69552 37.35627 2059 ft 146 kts 261°
2026-04-30 21:46 55.69137 37.34116 2137 ft 135 kts 228°
2026-04-30 21:46 55.68336 37.33191 2197 ft 141 kts 206°
2026-04-30 21:47 55.67424 37.32474 2069 ft 144 kts 204°
2026-04-30 21:47 55.66503 37.31771 1865 ft 143 kts 204°
2026-04-30 21:47 55.65598 37.31080 1668 ft 140 kts 204°
2026-04-30 21:47 55.64714 37.30404 1452 ft 138 kts 204°
2026-04-30 21:48 55.63836 37.29732 1266 ft 137 kts 204°
2026-04-30 21:48 55.62960 37.29064 1080 ft 136 kts 203°
2026-04-30 21:48 55.62087 37.28407 879 ft 136 kts 203°
2026-04-30 21:48 55.61227 37.27742 699 ft 134 kts 202°
2026-04-30 21:49 55.60405 37.27105 666 ft 115 kts 200°
2026-04-30 21:49 55.59812 37.26648 685 ft 71 kts 204°
2026-04-30 21:49 55.59536 37.26443 667 ft 9 kts 199°
2026-04-30 21:49 55.59475 37.26451 668 ft 9 kts 135°
2026-04-30 21:50 55.59479 37.26561 665 ft 9 kts 69°
2026-04-30 21:50 55.59509 37.26685 668 ft 14 kts 68°
2026-04-30 21:50 55.59526 37.26762 668 ft 0 kts 68°
2026-04-30 21:53 55.59527 37.26766 668 ft 2 kts 68°
2026-04-30 21:53 55.59548 37.26828 666 ft 10 kts 55°
2026-04-30 21:54 55.59611 37.26958 668 ft 18 kts 45°
2026-04-30 21:54 55.59714 37.27149 668 ft 23 kts 47°
2026-04-30 21:54 55.59809 37.27327 673 ft 16 kts 46°
2026-04-30 21:54 55.59883 37.27465 677 ft 15 kts 45°
2026-04-30 21:55 55.59944 37.27590 679 ft 12 kts 60°
2026-04-30 21:55 55.59997 37.27707 679 ft 12 kts 45°
2026-04-30 21:55 55.60062 37.27797 676 ft 12 kts 42°
2026-04-30 21:55 55.60126 37.27880 679 ft 11 kts 11°
2026-04-30 21:56 55.60202 37.27846 679 ft 11 kts 346°
2026-04-30 21:56 55.60261 37.27852 679 ft 6 kts 30°
2026-04-30 21:56 55.60273 37.27883 679 ft 0 kts 74°
2026-04-30 21:56 55.60273 37.27897 679 ft 3 kts 88°
2026-04-30 21:57 55.60273 37.27944 679 ft 4 kts 91°
2026-04-30 21:57 55.60272 37.27980 679 ft 0 kts 92°